Вернуться в каталог

FENGYUN 1C DEB

АктивенSSO
NORAD 33658·DEBRIS·🇨🇳 China

Запущен May 10, 1999 с Taiyuan Satellite Launch Center

Loading…

Ближайшие Пролёты (ближайшие 24 часа)

TLE

СвежийSource: Space-Track

Эпоха: Sep 14, 2026, 03:30 UTC

1 33658U 99025DET 26257.14637590  .00001999  00000-0  19803-2 0  9998
2 33658  99.5804  50.8993 0281094 197.6177 161.5060 13.63552331618914

Отслеживайте FENGYUN 1C DEB в реальном времени с AllMySat

Download on the App Store